STARLINK-36771, 67928

Orbit data source: Space-Track

STARLINK-36771, 67928 is a payload satellite owned by SpaceX/Seattle (US) in LEO that was launched on Sun, 22 Feb 2026 UTC via an FALCON 9 launch vehicle from the Air Force Eastern Test Range (AFETR). Payload-class satellites include a variety of spacecraft equipped with specific instruments for various scientific and technological missions. These include communications satellites like Starlink; space stations such as the ISS; scientific satellites like the Hubble; Earth observation satellites from companies like Planet Labs, Umbra, and HawkEye 360; GPS; miniature CubeSats for education and research; and military/defense satellites.

Loading next visibility...
Identifier
67928, 2026-036AA
Orbit
LEO
Country
Flag of USUS
Related business
Manufacturer
SpaceX/Seattle
Mission
Operational spacecraft
Bus & Motor
STARLINK V2MO, Unknown motor
Mass
575 kg wet, ~530 kg dry
Launch date (UTC)
2026-02-22 (2 months ago)
Launch vehicle
FALCON 9
Launch site
Air Force Eastern Test Range (AFETR)
Object type
Payload
Rocket body
Debris
Shape & HBR
Unknown shape, 17.7 m
Radar Cross Section
RCS unknown

Expand to show TLE details & history
Last TLE update: 8 hours ago

TLE from 8 hours ago
0 STARLINK-36771
1 67928U 26036AA  26104.20053528  .00002564  00000-0  10273-3 0  9990
2 67928  42.9994  44.6512 0001081 282.2628  77.8103 15.27558183  9159
Epoch: 2026-04-14T04:48Z
TLE epoch observation values (Epoch: 2026-04-14T04:48:46.248Z)
Latitude
0.00003°
Longitude
130.07833°
Altitude
482.733 km
Speed
7.626 km/s
True Right ascension
02h 58m 36s
True Declination
0° 00' 00"
Sunlit
Object was in daylight at epoch
Visualization orbit readout
Latitude
Unknown
Longitude
Unknown
Altitude
Unknown
Speed
Unknown
Apparent Right ascension
Unknown
Apparent Declination
Unknown
Sunlit
N/A
Visualization observer readout
Local Sidereal Time
19:12:43
Azimuth
Unknown
Elevation
Unknown
Doppler factor
Unknown
Orbital elements
Apogee altitude
485.802 km
Perigee altitude
484.318 km
Semi-major axis
6,863.197 km
Eccentricity
0.00011
Inclination
42.9994°
RAAN
44.6512°
Arg. of periapsis
282.2628°
True anomaly
77.82241°
Mean anomaly
77.8103°
Eccentric anomaly
77.81635°
Mean motion
3.81728 °/min
Orbital period
94.31 mins
BSTAR
0.00010273
Loading maneuver chart data...
Computing Atmospheric mass density...
Loading historical data...
Loading historical data...
Loading historical data...
Loading historical data...
Loading historical data...
Loading historical data...
Loading historical data...

Documentation

Showing up to 5 results
|